Time,TemperatureF,DewpointF,PressureIn,WindDirection,WindDirectionDegrees,WindSpeedMPH,WindSpeedGustMPH,Humidity,HourlyPrecipIn,Conditions,Clouds,dailyrainin,SoftwareType,DateUTC
2013-10-05 00:00:00,59.4,18.3,29.93,NNW,344,5.0,9.0,20,0.00,,,0.00,VWS V14.01,2013-10-05 07:00:00,
2013-10-05 00:05:00,59.4,19.5,29.94,North,355,7.0,8.0,21,0.00,,,0.00,VWS V14.01,2013-10-05 07:05:00,
2013-10-05 00:10:00,59.5,18.4,29.94,NNW,348,5.0,7.0,20,0.00,,,0.00,VWS V14.01,2013-10-05 07:10:00,
2013-10-05 00:15:00,59.7,18.6,29.94,North,355,5.0,8.0,20,0.00,,,0.00,VWS V14.01,2013-10-05 07:15:00,
2013-10-05 00:20:00,59.9,17.6,29.94,NNW,346,7.0,9.0,19,0.00,,,0.00,VWS V14.01,2013-10-05 07:20:00,
2013-10-05 00:25:00,60.1,17.7,29.94,North,355,6.0,9.0,19,0.00,,,0.00,VWS V14.01,2013-10-05 07:25:00,
2013-10-05 00:30:00,60.2,17.8,29.94,North,5,6.0,9.0,19,0.00,,,0.00,VWS V14.01,2013-10-05 07:30:00,
2013-10-05 00:35:00,60.2,17.8,29.95,NNE,13,6.0,9.0,19,0.00,,,0.00,VWS V14.01,2013-10-05 07:35:00,
2013-10-05 00:40:00,60.5,18.1,29.95,North,5,6.0,8.0,19,0.00,,,0.00,VWS V14.01,2013-10-05 07:40:00,
2013-10-05 00:45:00,60.7,18.2,29.95,North,5,9.0,9.0,19,0.00,,,0.00,VWS V14.01,2013-10-05 07:45:00,
2013-10-05 00:50:00,60.8,17.0,29.95,NNW,343,6.0,10.0,18,0.00,,,0.00,VWS V14.01,2013-10-05 07:50:00,
2013-10-05 00:55:00,61.0,17.2,29.95,North,360,7.0,11.0,18,0.00,,,0.00,VWS V14.01,2013-10-05 07:55:00,
2013-10-05 01:00:00,60.9,17.1,29.95,NNW,333,6.0,9.0,18,0.00,,,0.00,VWS V14.01,2013-10-05 08:00:00,
2013-10-05 01:05:00,60.9,17.1,29.95,North,11,6.0,9.0,18,0.00,,,0.00,VWS V14.01,2013-10-05 08:05:00,
2013-10-05 01:10:00,60.8,17.0,29.95,NNW,329,4.0,8.0,18,0.00,,,0.00,VWS V14.01,2013-10-05 08:10:00,
2013-10-05 01:15:00,60.6,16.9,29.96,North,355,4.0,8.0,18,0.00,,,0.00,VWS V14.01,2013-10-05 08:15:00,
2013-10-05 01:20:00,60.4,16.7,29.96,North,355,6.0,8.0,18,0.00,,,0.00,VWS V14.01,2013-10-05 08:20:00,
2013-10-05 01:25:00,60.2,17.8,29.96,North,355,4.0,9.0,19,0.00,,,0.00,VWS V14.01,2013-10-05 08:25:00,
2013-10-05 01:30:00,59.8,17.5,29.96,NNW,336,4.0,8.0,19,0.00,,,0.00,VWS V14.01,2013-10-05 08:30:00,
2013-10-05 01:35:00,59.5,17.2,29.96,North,360,7.0,8.0,19,0.00,,,0.00,VWS V14.01,2013-10-05 08:35:00,
2013-10-05 01:40:00,59.3,17.1,29.95,NNW,342,8.0,9.0,19,0.00,,,0.00,VWS V14.01,2013-10-05 08:40:00,
2013-10-05 01:45:00,59.1,16.9,29.96,North,355,6.0,9.0,19,0.00,,,0.00,VWS V14.01,2013-10-05 08:45:00,
2013-10-05 01:50:00,59.0,16.8,29.96,NW,325,6.0,10.0,19,0.00,,,0.00,VWS V14.01,2013-10-05 08:50:00,
2013-10-05 01:55:00,58.8,16.7,29.96,NNW,333,5.0,9.0,19,0.00,,,0.00,VWS V14.01,2013-10-05 08:55:00,
2013-10-05 02:00:00,58.7,16.6,29.96,NNW,341,7.0,10.0,19,0.00,,,0.00,VWS V14.01,2013-10-05 09:00:00,
2013-10-05 02:05:00,58.6,16.5,29.96,North,350,8.0,9.0,19,0.00,,,0.00,VWS V14.01,2013-10-05 09:05:00,
2013-10-05 02:10:00,58.5,16.4,29.96,North,355,7.0,8.0,19,0.00,,,0.00,VWS V14.01,2013-10-05 09:10:00,
2013-10-05 02:15:00,58.5,17.6,29.96,North,350,6.0,9.0,20,0.00,,,0.00,VWS V14.01,2013-10-05 09:15:00,
2013-10-05 02:20:00,58.4,17.5,29.96,North,349,5.0,9.0,20,0.00,,,0.00,VWS V14.01,2013-10-05 09:20:00,
2013-10-05 02:25:00,58.2,17.3,29.96,NNW,345,4.0,9.0,20,0.00,,,0.00,VWS V14.01,2013-10-05 09:25:00,
2013-10-05 02:30:00,58.1,17.3,29.96,NW,305,6.0,9.0,20,0.00,,,0.00,VWS V14.01,2013-10-05 09:30:00,
2013-10-05 02:35:00,57.9,17.1,29.96,NNW,338,8.0,11.0,20,0.00,,,0.00,VWS V14.01,2013-10-05 09:35:00,
2013-10-05 02:40:00,57.8,17.0,29.97,NNW,333,6.0,9.0,20,0.00,,,0.00,VWS V14.01,2013-10-05 09:40:00,
2013-10-05 02:45:00,57.8,17.0,29.96,NNW,337,10.0,10.0,20,0.00,,,0.00,VWS V14.01,2013-10-05 09:45:00,
2013-10-05 02:50:00,58.3,16.2,29.96,NNW,336,6.0,10.0,19,0.00,,,0.00,VWS V14.01,2013-10-05 09:50:00,
2013-10-05 02:55:00,58.7,16.6,29.97,North,5,6.0,10.0,19,0.00,,,0.00,VWS V14.01,2013-10-05 09:55:00,
2013-10-05 03:00:00,59.0,16.8,29.96,North,5,7.0,10.0,19,0.00,,,0.00,VWS V14.01,2013-10-05 10:00:00,
2013-10-05 03:05:00,59.3,17.1,29.96,North,360,8.0,10.0,19,0.00,,,0.00,VWS V14.01,2013-10-05 10:05:00,
2013-10-05 03:10:00,59.1,16.9,29.97,NNE,21,7.0,10.0,19,0.00,,,0.00,VWS V14.01,2013-10-05 10:10:00,
2013-10-05 03:15:00,59.2,17.0,29.97,NNW,347,6.0,12.0,19,0.00,,,0.00,VWS V14.01,2013-10-05 10:15:00,
2013-10-05 03:20:00,58.9,16.7,29.97,NNW,331,8.0,11.0,19,0.00,,,0.00,VWS V14.01,2013-10-05 10:20:00,
2013-10-05 03:25:00,58.4,16.3,29.97,NNW,346,8.0,10.0,19,0.00,,,0.00,VWS V14.01,2013-10-05 10:25:00,
2013-10-05 03:30:00,58.0,16.0,29.97,North,10,9.0,12.0,19,0.00,,,0.00,VWS V14.01,2013-10-05 10:30:00,
2013-10-05 03:35:00,58.0,17.2,29.97,NNW,328,8.0,12.0,20,0.00,,,0.00,VWS V14.01,2013-10-05 10:35:00,
2013-10-05 03:40:00,58.0,17.2,29.98,NNW,344,10.0,12.0,20,0.00,,,0.00,VWS V14.01,2013-10-05 10:40:00,
2013-10-05 03:45:00,57.9,15.9,29.98,NW,325,6.0,13.0,19,0.00,,,0.00,VWS V14.01,2013-10-05 10:45:00,
2013-10-05 03:50:00,58.0,16.0,29.98,NNW,330,8.0,13.0,19,0.00,,,0.00,VWS V14.01,2013-10-05 10:50:00,
2013-10-05 03:55:00,58.3,16.2,29.98,NNW,342,8.0,13.0,19,0.00,,,0.00,VWS V14.01,2013-10-05 10:55:00,
2013-10-05 04:00:00,58.3,16.2,29.98,NW,326,12.0,14.0,19,0.00,,,0.00,VWS V14.01,2013-10-05 11:00:00,
2013-10-05 04:05:00,58.2,16.2,29.98,NNW,340,14.0,14.0,19,0.00,,,0.00,VWS V14.01,2013-10-05 11:05:00,
2013-10-05 04:10:00,58.9,16.7,29.98,NNE,16,10.0,16.0,19,0.00,,,0.00,VWS V14.01,2013-10-05 11:10:00,
2013-10-05 04:15:00,59.5,17.2,29.98,NNE,12,11.0,16.0,19,0.00,,,0.00,VWS V14.01,2013-10-05 11:15:00,
2013-10-05 04:20:00,59.5,16.0,29.99,NNW,341,11.0,14.0,18,0.00,,,0.00,VWS V14.01,2013-10-05 11:20:00,
2013-10-05 04:25:00,59.3,17.1,29.98,NNW,343,12.0,13.0,19,0.00,,,0.00,VWS V14.01,2013-10-05 11:25:00,
2013-10-05 04:30:00,59.3,17.1,29.99,North,360,12.0,14.0,19,0.00,,,0.00,VWS V14.01,2013-10-05 11:30:00,
2013-10-05 04:35:00,59.5,16.0,29.99,NNW,328,10.0,15.0,18,0.00,,,0.00,VWS V14.01,2013-10-05 11:35:00,
2013-10-05 04:40:00,59.6,16.1,29.99,NNW,332,9.0,16.0,18,0.00,,,0.00,VWS V14.01,2013-10-05 11:40:00,
2013-10-05 04:45:00,59.8,16.2,29.99,NW,317,10.0,16.0,18,0.00,,,0.00,VWS V14.01,2013-10-05 11:45:00,
2013-10-05 04:50:00,59.9,16.3,29.99,NNW,340,12.0,17.0,18,0.00,,,0.00,VWS V14.01,2013-10-05 11:50:00,
2013-10-05 04:55:00,59.9,16.3,29.99,NW,321,12.0,16.0,18,0.00,,,0.00,VWS V14.01,2013-10-05 11:55:00,
2013-10-05 05:00:00,59.9,16.3,29.99,NNW,336,11.0,17.0,18,0.00,,,0.00,VWS V14.01,2013-10-05 12:00:00,
2013-10-05 05:05:00,59.9,16.3,29.99,North,5,17.0,19.0,18,0.00,,,0.00,VWS V14.01,2013-10-05 12:05:00,
2013-10-05 05:10:00,60.0,16.4,29.99,North,5,7.0,17.0,18,0.00,,,0.00,VWS V14.01,2013-10-05 12:10:00,
2013-10-05 05:15:00,59.9,16.3,30.00,NNE,16,14.0,19.0,18,0.00,,,0.00,VWS V14.01,2013-10-05 12:15:00,
2013-10-05 05:20:00,59.7,16.1,30.00,NW,321,9.0,19.0,18,0.00,,,0.00,VWS V14.01,2013-10-05 12:20:00,
2013-10-05 05:25:00,59.5,16.0,30.00,North,355,10.0,15.0,18,0.00,,,0.00,VWS V14.01,2013-10-05 12:25:00,
2013-10-05 05:30:00,59.4,15.9,30.00,North,355,5.0,15.0,18,0.00,,,0.00,VWS V14.01,2013-10-05 12:30:00,
2013-10-05 05:35:00,59.3,15.8,30.00,NW,321,7.0,14.0,18,0.00,,,0.00,VWS V14.01,2013-10-05 12:35:00,
2013-10-05 05:40:00,59.1,15.7,30.00,NNW,340,8.0,15.0,18,0.00,,,0.00,VWS V14.01,2013-10-05 12:40:00,
2013-10-05 05:45:00,58.9,15.5,30.00,NNW,328,7.0,14.0,18,0.00,,,0.00,VWS V14.01,2013-10-05 12:45:00,
2013-10-05 05:50:00,58.8,15.4,30.00,NNW,342,9.0,13.0,18,0.00,,,0.00,VWS V14.01,2013-10-05 12:50:00,
2013-10-05 05:55:00,58.7,16.6,30.01,NW,315,9.0,14.0,19,0.00,,,0.00,VWS V14.01,2013-10-05 12:55:00,
2013-10-05 05:56:00,58.6,16.5,30.01,NNW,342,9.0,11.0,19,0.00,,,0.00,VWS V14.01,2013-10-05 12:56:00,
2013-10-05 06:00:00,58.5,16.4,30.01,NNW,348,6.0,16.0,19,0.00,,,0.00,VWS V14.01,2013-10-05 13:00:00,
2013-10-05 06:01:00,58.5,16.4,30.01,North,355,7.0,11.0,19,0.00,,,0.00,VWS V14.01,2013-10-05 13:01:00,
2013-10-05 06:05:00,58.4,16.3,30.01,NNW,342,9.0,13.0,19,0.00,,,0.00,VWS V14.01,2013-10-05 13:05:00,
2013-10-05 06:06:00,58.3,16.2,30.01,North,355,10.0,10.0,19,0.00,,,0.00,VWS V14.01,2013-10-05 13:06:00,
2013-10-05 06:10:00,58.2,16.2,30.01,North,360,8.0,14.0,19,0.00,,,0.00,VWS V14.01,2013-10-05 13:10:00,
2013-10-05 06:11:00,58.2,16.2,30.01,North,360,9.0,14.0,19,0.00,,,0.00,VWS V14.01,2013-10-05 13:11:00,
2013-10-05 06:15:00,58.2,16.2,30.01,NNW,327,9.0,15.0,19,0.00,,,0.00,VWS V14.01,2013-10-05 13:15:00,
2013-10-05 06:16:00,58.2,16.2,30.01,NNW,348,10.0,12.0,19,0.00,,,0.00,VWS V14.01,2013-10-05 13:16:00,
2013-10-05 06:20:00,58.2,16.2,30.01,NNW,331,9.0,14.0,19,0.00,,,0.00,VWS V14.01,2013-10-05 13:20:00,
2013-10-05 06:21:00,58.2,16.2,30.01,NW,309,10.0,12.0,19,0.00,,,0.00,VWS V14.01,2013-10-05 13:21:00,
2013-10-05 06:25:00,58.2,16.2,30.01,North,350,10.0,17.0,19,0.00,,,0.00,VWS V14.01,2013-10-05 13:25:00,
2013-10-05 06:26:00,58.2,16.2,30.01,North,355,11.0,11.0,19,0.00,,,0.00,VWS V14.01,2013-10-05 13:26:00,
2013-10-05 06:30:00,58.4,16.3,30.01,North,360,13.0,13.0,19,0.00,,,0.00,VWS V14.01,2013-10-05 13:30:00,
2013-10-05 06:31:00,58.5,16.4,30.01,North,11,7.0,13.0,19,0.00,,,0.00,VWS V14.01,2013-10-05 13:31:00,
2013-10-05 06:35:00,58.8,16.7,30.02,North,355,13.0,17.0,19,0.00,,,0.00,VWS V14.01,2013-10-05 13:35:00,
2013-10-05 06:36:00,58.9,16.7,30.01,North,9,16.0,16.0,19,0.00,,,0.00,VWS V14.01,2013-10-05 13:36:00,
2013-10-05 06:40:00,59.3,15.8,30.02,North,355,8.0,16.0,18,0.00,,,0.00,VWS V14.01,2013-10-05 13:40:00,
2013-10-05 06:41:00,59.4,15.9,30.02,NW,324,10.0,14.0,18,0.00,,,0.00,VWS V14.01,2013-10-05 13:41:00,
2013-10-05 06:45:00,59.8,16.2,30.02,North,360,13.0,16.0,18,0.00,,,0.00,VWS V14.01,2013-10-05 13:45:00,
2013-10-05 06:46:00,59.9,16.3,30.02,North,360,11.0,14.0,18,0.00,,,0.00,VWS V14.01,2013-10-05 13:46:00,
2013-10-05 06:50:00,60.2,16.6,30.02,NNW,342,9.0,14.0,18,0.00,,,0.00,VWS V14.01,2013-10-05 13:50:00,
2013-10-05 06:51:00,60.3,16.6,30.02,North,349,14.0,16.0,18,0.00,,,0.00,VWS V14.01,2013-10-05 13:51:00,
2013-10-05 06:55:00,60.6,15.6,30.02,NNW,334,8.0,17.0,17,0.00,,,0.00,VWS V14.01,2013-10-05 13:55:00,
2013-10-05 06:56:00,60.7,17.0,30.02,North,350,7.0,11.0,18,0.00,,,0.00,VWS V14.01,2013-10-05 13:56:00,
2013-10-05 07:00:00,61.0,15.9,30.02,North,355,11.0,16.0,17,0.00,,,0.00,VWS V14.01,2013-10-05 14:00:00,
2013-10-05 07:01:00,61.1,16.0,30.02,North,5,5.0,11.0,17,0.00,,,0.00,VWS V14.01,2013-10-05 14:01:00,
2013-10-05 07:05:00,61.4,16.2,30.02,North,5,14.0,18.0,17,0.00,,,0.00,VWS V14.01,2013-10-05 14:05:00,
2013-10-05 07:06:00,61.4,16.2,30.02,North,355,10.0,14.0,17,0.00,,,0.00,VWS V14.01,2013-10-05 14:06:00,
2013-10-05 07:10:00,61.7,16.5,30.02,North,5,9.0,16.0,17,0.00,,,0.00,VWS V14.01,2013-10-05 14:10:00,
2013-10-05 07:11:00,61.9,16.6,30.02,North,355,5.0,14.0,17,0.00,,,0.00,VWS V14.01,2013-10-05 14:11:00,
2013-10-05 07:15:00,62.3,15.6,30.02,North,5,7.0,14.0,16,0.00,,,0.00,VWS V14.01,2013-10-05 14:15:00,
2013-10-05 07:16:00,62.4,17.0,30.02,North,5,9.0,10.0,17,0.00,,,0.00,VWS V14.01,2013-10-05 14:16:00,
2013-10-05 07:20:00,62.9,16.0,30.02,North,355,4.0,13.0,16,0.00,,,0.00,VWS V14.01,2013-10-05 14:20:00,
2013-10-05 07:21:00,63.0,16.1,30.02,NNE,22,6.0,10.0,16,0.00,,,0.00,VWS V14.01,2013-10-05 14:21:00,
2013-10-05 07:25:00,63.5,16.5,30.02,ENE,73,8.0,14.0,16,0.00,,,0.00,VWS V14.01,2013-10-05 14:25:00,
2013-10-05 07:26:00,63.6,16.6,30.02,North,355,4.0,11.0,16,0.00,,,0.00,VWS V14.01,2013-10-05 14:26:00,
2013-10-05 07:30:00,64.1,17.0,30.02,North,355,7.0,11.0,16,0.00,,,0.00,VWS V14.01,2013-10-05 14:30:00,
2013-10-05 07:31:00,64.2,17.1,30.02,NNW,346,9.0,10.0,16,0.00,,,0.00,VWS V14.01,2013-10-05 14:31:00,
2013-10-05 07:35:00,64.4,15.8,30.02,NNE,17,6.0,12.0,15,0.00,,,0.00,VWS V14.01,2013-10-05 14:35:00,
2013-10-05 07:36:00,64.5,17.3,30.02,NNW,346,7.0,7.0,16,0.00,,,0.00,VWS V14.01,2013-10-05 14:36:00,
2013-10-05 07:40:00,64.9,16.2,30.02,North,350,8.0,12.0,15,0.00,,,0.00,VWS V14.01,2013-10-05 14:40:00,
2013-10-05 07:41:00,65.0,16.3,30.02,NNW,340,5.0,9.0,15,0.00,,,0.00,VWS V14.01,2013-10-05 14:41:00,
2013-10-05 07:45:00,65.3,16.5,30.03,NNW,336,7.0,12.0,15,0.00,,,0.00,VWS V14.01,2013-10-05 14:45:00,
2013-10-05 07:46:00,65.4,16.6,30.03,North,360,11.0,11.0,15,0.00,,,0.00,VWS V14.01,2013-10-05 14:46:00,
2013-10-05 07:50:00,65.6,16.7,30.03,North,355,5.0,13.0,15,0.00,,,0.00,VWS V14.01,2013-10-05 14:50:00,
2013-10-05 07:51:00,65.7,16.8,30.03,NNW,334,6.0,7.0,15,0.00,,,0.00,VWS V14.01,2013-10-05 14:51:00,
2013-10-05 07:55:00,65.9,17.0,30.03,North,349,5.0,12.0,15,0.00,,,0.00,VWS V14.01,2013-10-05 14:55:00,
2013-10-05 07:56:00,66.0,17.1,30.03,North,355,9.0,10.0,15,0.00,,,0.00,VWS V14.01,2013-10-05 14:56:00,
2013-10-05 08:00:00,66.5,15.9,30.03,North,5,6.0,11.0,14,0.00,,,0.00,VWS V14.01,2013-10-05 15:00:00,
2013-10-05 08:01:00,66.5,15.9,30.03,NNE,19,7.0,9.0,14,0.00,,,0.00,VWS V14.01,2013-10-05 15:01:00,
2013-10-05 08:05:00,66.7,16.0,30.03,NNW,339,6.0,15.0,14,0.00,,,0.00,VWS V14.01,2013-10-05 15:05:00,
2013-10-05 08:06:00,66.9,16.2,30.03,North,349,5.0,10.0,14,0.00,,,0.00,VWS V14.01,2013-10-05 15:06:00,
2013-10-05 08:10:00,67.3,16.5,30.03,North,350,4.0,12.0,14,0.00,,,0.00,VWS V14.01,2013-10-05 15:10:00,
2013-10-05 08:11:00,67.4,16.6,30.03,NNW,341,10.0,10.0,14,0.00,,,0.00,VWS V14.01,2013-10-05 15:11:00,
2013-10-05 08:15:00,67.4,16.6,30.03,NNE,13,8.0,16.0,14,0.00,,,0.00,VWS V14.01,2013-10-05 15:15:00,
2013-10-05 08:16:00,67.3,16.5,30.04,NNE,13,5.0,12.0,14,0.00,,,0.00,VWS V14.01,2013-10-05 15:16:00,
2013-10-05 08:20:00,67.7,16.8,30.04,NW,316,12.0,12.0,14,0.00,,,0.00,VWS V14.01,2013-10-05 15:20:00,
2013-10-05 08:21:00,67.8,15.2,30.04,North,355,8.0,12.0,13,0.00,,,0.00,VWS V14.01,2013-10-05 15:21:00,
2013-10-05 08:25:00,68.1,15.4,30.04,North,355,10.0,12.0,13,0.00,,,0.00,VWS V14.01,2013-10-05 15:25:00,
2013-10-05 08:26:00,68.1,15.4,30.04,NNW,343,6.0,11.0,13,0.00,,,0.00,VWS V14.01,2013-10-05 15:26:00,
2013-10-05 08:30:00,68.3,15.6,30.04,NW,321,3.0,15.0,13,0.00,,,0.00,VWS V14.01,2013-10-05 15:30:00,
2013-10-05 08:31:00,68.4,15.7,30.04,North,360,10.0,12.0,13,0.00,,,0.00,VWS V14.01,2013-10-05 15:31:00,
2013-10-05 08:35:00,68.7,15.9,30.04,NNE,20,7.0,13.0,13,0.00,,,0.00,VWS V14.01,2013-10-05 15:35:00,
2013-10-05 08:36:00,68.8,16.0,30.04,North,360,8.0,8.0,13,0.00,,,0.00,VWS V14.01,2013-10-05 15:36:00,
2013-10-05 08:40:00,69.3,16.4,30.04,North,355,6.0,12.0,13,0.00,,,0.00,VWS V14.01,2013-10-05 15:40:00,
2013-10-05 08:41:00,69.3,16.4,30.04,NNE,30,6.0,10.0,13,0.00,,,0.00,VWS V14.01,2013-10-05 15:41:00,
2013-10-05 08:45:00,69.5,16.5,30.04,North,360,8.0,14.0,13,0.00,,,0.00,VWS V14.01,2013-10-05 15:45:00,
2013-10-05 08:46:00,69.4,16.5,30.04,NNW,346,9.0,13.0,13,0.00,,,0.00,VWS V14.01,2013-10-05 15:46:00,
2013-10-05 08:50:00,69.2,16.3,30.04,North,5,8.0,16.0,13,0.00,,,0.00,VWS V14.01,2013-10-05 15:50:00,
2013-10-05 08:51:00,69.2,16.3,30.04,NNW,334,12.0,14.0,13,0.00,,,0.00,VWS V14.01,2013-10-05 15:51:00,
2013-10-05 08:55:00,69.4,16.5,30.04,North,355,6.0,14.0,13,0.00,,,0.00,VWS V14.01,2013-10-05 15:55:00,
2013-10-05 08:56:00,69.5,16.5,30.04,North,11,3.0,10.0,13,0.00,,,0.00,VWS V14.01,2013-10-05 15:56:00,
2013-10-05 09:00:00,69.9,16.9,30.04,NNE,27,4.0,11.0,13,0.00,,,0.00,VWS V14.01,2013-10-05 16:00:00,
2013-10-05 09:01:00,70.0,16.9,30.04,North,349,7.0,11.0,13,0.00,,,0.00,VWS V14.01,2013-10-05 16:01:00,
2013-10-05 09:05:00,70.4,17.2,30.04,NNE,13,10.0,12.0,13,0.00,,,0.00,VWS V14.01,2013-10-05 16:05:00,
2013-10-05 09:06:00,70.5,17.3,30.05,North,360,7.0,10.0,13,0.00,,,0.00,VWS V14.01,2013-10-05 16:06:00,
2013-10-05 09:10:00,70.7,17.5,30.04,NNW,332,8.0,12.0,13,0.00,,,0.00,VWS V14.01,2013-10-05 16:10:00,
2013-10-05 09:11:00,70.7,17.5,30.04,NNE,14,8.0,12.0,13,0.00,,,0.00,VWS V14.01,2013-10-05 16:11:00,
2013-10-05 09:15:00,70.9,17.6,30.04,North,5,10.0,13.0,13,0.00,,,0.00,VWS V14.01,2013-10-05 16:15:00,
2013-10-05 09:16:00,70.9,15.8,30.04,North,355,5.0,10.0,12,0.00,,,0.00,VWS V14.01,2013-10-05 16:16:00,
2013-10-05 09:20:00,71.3,16.1,30.04,North,355,7.0,16.0,12,0.00,,,0.00,VWS V14.01,2013-10-05 16:20:00,
2013-10-05 09:21:00,71.5,16.3,30.04,North,355,7.0,11.0,12,0.00,,,0.00,VWS V14.01,2013-10-05 16:21:00,
2013-10-05 09:25:00,71.7,16.4,30.05,NNE,20,6.0,12.0,12,0.00,,,0.00,VWS V14.01,2013-10-05 16:25:00,
2013-10-05 09:26:00,71.8,16.5,30.05,NNE,14,7.0,9.0,12,0.00,,,0.00,VWS V14.01,2013-10-05 16:26:00,
2013-10-05 09:30:00,72.3,16.9,30.05,NE,38,6.0,13.0,12,0.00,,,0.00,VWS V14.01,2013-10-05 16:30:00,
2013-10-05 09:31:00,72.4,17.0,30.05,NNE,20,9.0,11.0,12,0.00,,,0.00,VWS V14.01,2013-10-05 16:31:00,
2013-10-05 09:35:00,72.4,17.0,30.05,NE,34,8.0,13.0,12,0.00,,,0.00,VWS V14.01,2013-10-05 16:35:00,
2013-10-05 09:36:00,72.5,17.0,30.05,NNE,20,2.0,10.0,12,0.00,,,0.00,VWS V14.01,2013-10-05 16:36:00,
2013-10-05 09:41:00,72.8,17.3,30.05,North,5,7.0,11.0,12,0.00,,,0.00,VWS V14.01,2013-10-05 16:41:00,
2013-10-05 09:45:00,72.8,17.3,30.05,North,5,7.0,13.0,12,0.00,,,0.00,VWS V14.01,2013-10-05 16:45:00,
2013-10-05 09:46:00,72.8,17.3,30.05,NNE,15,7.0,11.0,12,0.00,,,0.00,VWS V14.01,2013-10-05 16:46:00,
2013-10-05 09:51:00,73.2,17.6,30.05,North,10,9.0,12.0,12,0.00,,,0.00,VWS V14.01,2013-10-05 16:51:00,
2013-10-05 09:55:00,73.3,17.7,30.05,North,5,9.0,12.0,12,0.00,,,0.00,VWS V14.01,2013-10-05 16:55:00,
2013-10-05 10:10:00,74.3,18.5,30.05,NNE,21,6.0,11.0,12,0.00,,,0.00,VWS V14.01,2013-10-05 17:10:00,
2013-10-05 10:11:00,74.4,18.5,30.05,NNE,17,7.0,11.0,12,0.00,,,0.00,VWS V14.01,2013-10-05 17:11:00,
2013-10-05 10:13:00,72.8,17.3,30.05,ENE,64,10.0,13.0,12,0.00,,,0.00,VWS V14.01,2013-10-05 17:13:00,
2013-10-05 10:16:00,74.5,18.6,30.05,NNE,23,5.0,8.0,12,0.00,,,0.00,VWS V14.01,2013-10-05 17:16:00,
2013-10-05 10:20:00,74.6,18.7,30.04,North,355,8.0,10.0,12,0.00,,,0.00,VWS V14.01,2013-10-05 17:20:00,
2013-10-05 10:23:00,72.9,17.4,30.05,NW,314,9.0,14.0,12,0.00,,,0.00,VWS V14.01,2013-10-05 17:23:00,
2013-10-05 10:26:00,75.1,17.0,30.04,North,355,9.0,11.0,11,0.00,,,0.00,VWS V14.01,2013-10-05 17:26:00,
2013-10-05 10:29:00,73.4,17.7,30.05,North,5,4.0,11.0,12,0.00,,,0.00,VWS V14.01,2013-10-05 17:29:00,
2013-10-05 10:34:00,73.9,18.1,30.05,North,355,5.0,9.0,12,0.00,,,0.00,VWS V14.01,2013-10-05 17:34:00,
2013-10-05 10:35:00,75.9,17.7,30.04,NNE,30,5.0,12.0,11,0.00,,,0.00,VWS V14.01,2013-10-05 17:35:00,
2013-10-05 10:39:00,74.2,18.4,30.05,NNW,347,8.0,11.0,12,0.00,,,0.00,VWS V14.01,2013-10-05 17:39:00,
2013-10-05 10:40:00,75.7,17.5,30.04,North,5,4.0,10.0,11,0.00,,,0.00,VWS V14.01,2013-10-05 17:40:00,
2013-10-05 10:46:00,76.3,20.0,30.04,North,5,9.0,11.0,12,0.00,,,0.00,VWS V14.01,2013-10-05 17:46:00,
2013-10-05 10:48:00,74.6,18.7,30.04,NNW,346,6.0,13.0,12,0.00,,,0.00,VWS V14.01,2013-10-05 17:48:00,
2013-10-05 10:50:00,75.7,17.5,30.04,NNW,331,9.0,15.0,11,0.00,,,0.00,VWS V14.01,2013-10-05 17:50:00,
2013-10-05 10:51:00,75.5,17.4,30.04,NW,325,6.0,10.0,11,0.00,,,0.00,VWS V14.01,2013-10-05 17:51:00,
2013-10-05 10:54:00,74.6,18.7,30.05,NNE,15,3.0,11.0,12,0.00,,,0.00,VWS V14.01,2013-10-05 17:54:00,
2013-10-05 10:55:00,75.2,17.1,30.04,NNW,342,8.0,11.0,11,0.00,,,0.00,VWS V14.01,2013-10-05 17:55:00,
2013-10-05 11:00:00,74.9,16.9,30.04,North,10,4.0,9.0,11,0.00,,,0.00,VWS V14.01,2013-10-05 18:00:00,
2013-10-05 11:01:00,75.4,17.3,30.04,NNW,337,5.0,8.0,11,0.00,,,0.00,VWS V14.01,2013-10-05 18:01:00,
2013-10-05 11:03:00,75.5,17.4,30.04,North,5,7.0,11.0,11,0.00,,,0.00,VWS V14.01,2013-10-05 18:03:00,
2013-10-05 11:05:00,76.2,17.9,30.04,NNW,344,7.0,8.0,11,0.00,,,0.00,VWS V14.01,2013-10-05 18:05:00,
2013-10-05 11:09:00,75.7,17.5,30.04,NE,41,5.0,9.0,11,0.00,,,0.00,VWS V14.01,2013-10-05 18:09:00,
2013-10-05 11:11:00,76.0,15.6,30.03,NNW,327,5.0,8.0,10,0.00,,,0.00,VWS V14.01,2013-10-05 18:11:00,
2013-10-05 11:14:00,76.0,17.7,30.04,NNE,18,8.0,10.0,11,0.00,,,0.00,VWS V14.01,2013-10-05 18:14:00,
2013-10-05 11:15:00,76.1,15.6,30.03,NNW,338,2.0,10.0,10,0.00,,,0.00,VWS V14.01,2013-10-05 18:15:00,
2013-10-05 11:16:00,76.2,17.9,30.03,NNW,347,3.0,7.0,11,0.00,,,0.00,VWS V14.01,2013-10-05 18:16:00,
2013-10-05 11:20:00,76.5,15.9,30.03,NNW,347,4.0,8.0,10,0.00,,,0.00,VWS V14.01,2013-10-05 18:20:00,
2013-10-05 11:25:00,76.3,15.8,30.03,NW,324,6.0,10.0,10,0.00,,,0.00,VWS V14.01,2013-10-05 18:25:00,
2013-10-05 11:26:00,76.4,18.0,30.03,North,350,3.0,7.0,11,0.00,,,0.00,VWS V14.01,2013-10-05 18:26:00,
2013-10-05 11:29:00,75.2,17.1,30.04,NNE,27,4.0,9.0,11,0.00,,,0.00,VWS V14.01,2013-10-05 18:29:00,
2013-10-05 11:30:00,76.5,18.1,30.02,North,5,4.0,7.0,11,0.00,,,0.00,VWS V14.01,2013-10-05 18:30:00,
2013-10-05 11:31:00,76.5,15.9,30.02,NNE,15,2.0,6.0,10,0.00,,,0.00,VWS V14.01,2013-10-05 18:31:00,
2013-10-05 11:35:00,76.5,18.1,30.02,NE,55,1.0,8.0,11,0.00,,,0.00,VWS V14.01,2013-10-05 18:35:00,
2013-10-05 11:36:00,76.7,16.1,30.02,North,360,0.0,6.0,10,0.00,,,0.00,VWS V14.01,2013-10-05 18:36:00,
2013-10-05 11:39:00,76.2,17.9,30.03,North,360,6.0,8.0,11,0.00,,,0.00,VWS V14.01,2013-10-05 18:39:00,
2013-10-05 11:40:00,76.7,16.1,30.02,NNW,339,9.0,10.0,10,0.00,,,0.00,VWS V14.01,2013-10-05 18:40:00,
2013-10-05 11:41:00,76.9,18.4,30.02,NNW,332,7.0,9.0,11,0.00,,,0.00,VWS V14.01,2013-10-05 18:41:00,
2013-10-05 11:45:00,76.9,16.2,30.02,NNW,346,0.0,9.0,10,0.00,,,0.00,VWS V14.01,2013-10-05 18:45:00,
2013-10-05 11:46:00,77.2,18.7,30.02,WSW,254,1.0,3.0,11,0.00,,,0.00,VWS V14.01,2013-10-05 18:46:00,
2013-10-05 11:50:00,77.3,16.5,30.02,NW,311,7.0,9.0,10,0.00,,,0.00,VWS V14.01,2013-10-05 18:50:00,
2013-10-05 11:51:00,77.0,16.3,30.01,NW,306,2.0,7.0,10,0.00,,,0.00,VWS V14.01,2013-10-05 18:51:00,
2013-10-05 11:54:00,76.8,16.2,30.03,NNW,334,5.0,8.0,10,0.00,,,0.00,VWS V14.01,2013-10-05 18:54:00,
2013-10-05 11:55:00,77.0,16.3,30.01,WNW,298,3.0,10.0,10,0.00,,,0.00,VWS V14.01,2013-10-05 18:55:00,
2013-10-05 11:56:00,76.9,16.2,30.01,NW,324,0.0,5.0,10,0.00,,,0.00,VWS V14.01,2013-10-05 18:56:00,
2013-10-05 12:00:00,77.6,16.8,30.01,NW,323,4.0,5.0,10,0.00,,,0.00,VWS V14.01,2013-10-05 19:00:00,
2013-10-05 12:01:00,77.3,16.5,30.01,NNW,327,5.0,6.0,10,0.00,,,0.00,VWS V14.01,2013-10-05 19:01:00,
2013-10-05 12:05:00,77.3,14.1,30.01,NW,304,3.0,9.0,9,0.00,,,0.00,VWS V14.01,2013-10-05 19:05:00,
2013-10-05 12:06:00,77.1,16.4,30.01,NW,315,3.0,4.0,10,0.00,,,0.00,VWS V14.01,2013-10-05 19:06:00,
2013-10-05 12:10:00,77.3,14.1,30.00,NE,45,1.0,8.0,9,0.00,,,0.00,VWS V14.01,2013-10-05 19:10:00,
2013-10-05 12:11:00,77.3,16.5,30.00,NE,45,0.0,1.0,10,0.00,,,0.00,VWS V14.01,2013-10-05 19:11:00,
2013-10-05 12:15:00,77.6,16.8,30.01,NNW,342,5.0,7.0,10,0.00,,,0.00,VWS V14.01,2013-10-05 19:15:00,
2013-10-05 12:16:00,78.0,14.6,30.00,North,355,3.0,8.0,9,0.00,,,0.00,VWS V14.01,2013-10-05 19:16:00,
2013-10-05 12:20:00,77.6,14.4,30.00,NW,322,7.0,8.0,9,0.00,,,0.00,VWS V14.01,2013-10-05 19:20:00,
2013-10-05 12:21:00,77.6,14.4,30.00,North,355,5.0,8.0,9,0.00,,,0.00,VWS V14.01,2013-10-05 19:21:00,
2013-10-05 12:25:00,77.7,14.4,30.00,NNE,30,1.0,8.0,9,0.00,,,0.00,VWS V14.01,2013-10-05 19:25:00,
2013-10-05 12:26:00,77.6,14.4,30.00,NNE,20,3.0,5.0,9,0.00,,,0.00,VWS V14.01,2013-10-05 19:26:00,
2013-10-05 12:30:00,77.6,14.4,30.00,NNW,333,1.0,8.0,9,0.00,,,0.00,VWS V14.01,2013-10-05 19:30:00,
2013-10-05 12:31:00,77.8,14.5,30.00,North,355,3.0,3.0,9,0.00,,,0.00,VWS V14.01,2013-10-05 19:31:00,
2013-10-05 12:35:00,78.4,14.9,30.00,North,360,8.0,8.0,9,0.00,,,0.00,VWS V14.01,2013-10-05 19:35:00,
2013-10-05 12:36:00,78.2,14.8,30.00,NW,313,0.0,8.0,9,0.00,,,0.00,VWS V14.01,2013-10-05 19:36:00,
2013-10-05 12:40:00,77.2,14.1,29.99,ENE,78,0.0,8.0,9,0.00,,,0.00,VWS V14.01,2013-10-05 19:40:00,
2013-10-05 12:41:00,77.2,14.1,29.99,NNW,329,1.0,6.0,9,0.00,,,0.00,VWS V14.01,2013-10-05 19:41:00,
2013-10-05 12:45:00,77.7,14.4,29.99,WNW,286,2.0,8.0,9,0.00,,,0.00,VWS V14.01,2013-10-05 19:45:00,
2013-10-05 12:46:00,78.1,12.1,29.99,NNW,346,8.0,11.0,8,0.00,,,0.00,VWS V14.01,2013-10-05 19:46:00,
2013-10-05 12:50:00,77.9,11.9,29.99,NW,304,2.0,11.0,8,0.00,,,0.00,VWS V14.01,2013-10-05 19:50:00,
2013-10-05 12:51:00,77.8,14.5,29.99,WNW,292,3.0,5.0,9,0.00,,,0.00,VWS V14.01,2013-10-05 19:51:00,
2013-10-05 12:55:00,77.2,14.1,29.99,WNW,302,1.0,5.0,9,0.00,,,0.00,VWS V14.01,2013-10-05 19:55:00,
2013-10-05 12:56:00,78.2,14.8,29.99,West,266,0.0,3.0,9,0.00,,,0.00,VWS V14.01,2013-10-05 19:56:00,
2013-10-05 13:00:00,78.7,12.5,29.99,NNW,344,6.0,6.0,8,0.00,,,0.00,VWS V14.01,2013-10-05 20:00:00,
2013-10-05 13:01:00,78.5,12.4,29.99,ENE,67,2.0,6.0,8,0.00,,,0.00,VWS V14.01,2013-10-05 20:01:00,
2013-10-05 13:05:00,79.0,12.7,29.99,East,90,4.0,8.0,8,0.00,,,0.00,VWS V14.01,2013-10-05 20:05:00,
2013-10-05 13:06:00,79.0,12.7,29.99,North,355,4.0,7.0,8,0.00,,,0.00,VWS V14.01,2013-10-05 20:06:00,
2013-10-05 13:10:00,78.4,12.3,29.99,NNW,338,2.0,8.0,8,0.00,,,0.00,VWS V14.01,2013-10-05 20:10:00,
2013-10-05 13:11:00,78.2,12.1,29.98,NNW,332,0.0,5.0,8,0.00,,,0.00,VWS V14.01,2013-10-05 20:11:00,
2013-10-05 13:15:00,78.2,12.1,29.98,NW,315,3.0,5.0,8,0.00,,,0.00,VWS V14.01,2013-10-05 20:15:00,
2013-10-05 13:16:00,78.5,12.4,29.98,NNW,330,3.0,3.0,8,0.00,,,0.00,VWS V14.01,2013-10-05 20:16:00,
2013-10-05 13:20:00,79.3,12.9,29.98,NNW,329,7.0,8.0,8,0.00,,,0.00,VWS V14.01,2013-10-05 20:20:00,
2013-10-05 13:21:00,79.1,9.8,29.98,NW,320,4.0,7.0,7,0.00,,,0.00,VWS V14.01,2013-10-05 20:21:00,
2013-10-05 13:25:00,78.7,9.5,29.98,NW,312,5.0,7.0,7,0.00,,,0.00,VWS V14.01,2013-10-05 20:25:00,
2013-10-05 13:26:00,78.6,9.4,29.98,NNW,331,2.0,5.0,7,0.00,,,0.00,VWS V14.01,2013-10-05 20:26:00,
2013-10-05 13:30:00,78.7,9.5,29.98,West,272,4.0,7.0,7,0.00,,,0.00,VWS V14.01,2013-10-05 20:30:00,
2013-10-05 13:31:00,78.7,9.5,29.97,West,277,0.0,5.0,7,0.00,,,0.00,VWS V14.01,2013-10-05 20:31:00,
2013-10-05 13:35:00,78.8,9.6,29.97,WNW,289,4.0,7.0,7,0.00,,,0.00,VWS V14.01,2013-10-05 20:35:00,
2013-10-05 13:36:00,78.7,9.5,29.97,WNW,298,0.0,5.0,7,0.00,,,0.00,VWS V14.01,2013-10-05 20:36:00,
2013-10-05 13:40:00,78.4,12.3,29.97,WSW,249,0.0,5.0,8,0.00,,,0.00,VWS V14.01,2013-10-05 20:40:00,
2013-10-05 13:41:00,78.7,9.5,29.97,WSW,249,0.0,1.0,7,0.00,,,0.00,VWS V14.01,2013-10-05 20:41:00,
2013-10-05 13:45:00,78.5,9.4,29.97,NNW,343,0.0,2.0,7,0.00,,,0.00,VWS V14.01,2013-10-05 20:45:00,
2013-10-05 13:46:00,78.8,9.6,29.97,NNW,343,0.0,1.0,7,0.00,,,0.00,VWS V14.01,2013-10-05 20:46:00,
2013-10-05 13:50:00,79.5,10.1,29.97,North,355,0.0,3.0,7,0.00,,,0.00,VWS V14.01,2013-10-05 20:50:00,
2013-10-05 13:51:00,79.4,10.0,29.97,East,99,0.0,2.0,7,0.00,,,0.00,VWS V14.01,2013-10-05 20:51:00,
2013-10-05 13:55:00,79.0,9.7,29.97,ESE,111,0.0,6.0,7,0.00,,,0.00,VWS V14.01,2013-10-05 20:55:00,
2013-10-05 13:56:00,78.8,9.6,29.96,ENE,71,1.0,4.0,7,0.00,,,0.00,VWS V14.01,2013-10-05 20:56:00,
2013-10-05 14:00:00,78.6,9.4,29.96,NNE,25,2.0,4.0,7,0.00,,,0.00,VWS V14.01,2013-10-05 21:00:00,
2013-10-05 14:01:00,79.0,9.7,29.96,North,355,3.0,7.0,7,0.00,,,0.00,VWS V14.01,2013-10-05 21:01:00,
2013-10-05 14:05:00,79.7,10.2,29.96,NW,317,6.0,7.0,7,0.00,,,0.00,VWS V14.01,2013-10-05 21:05:00,
2013-10-05 14:06:00,79.8,10.3,29.96,NW,319,2.0,8.0,7,0.00,,,0.00,VWS V14.01,2013-10-05 21:06:00,
2013-10-05 14:10:00,79.2,9.9,29.96,NW,319,2.0,8.0,7,0.00,,,0.00,VWS V14.01,2013-10-05 21:10:00,
2013-10-05 14:11:00,79.1,9.8,29.96,NNW,343,5.0,5.0,7,0.00,,,0.00,VWS V14.01,2013-10-05 21:11:00,
2013-10-05 14:15:00,78.9,9.6,29.96,North,360,2.0,5.0,7,0.00,,,0.00,VWS V14.01,2013-10-05 21:15:00,
2013-10-05 14:16:00,79.0,9.7,29.95,North,355,0.0,4.0,7,0.00,,,0.00,VWS V14.01,2013-10-05 21:16:00,
2013-10-05 14:20:00,78.6,9.4,29.95,NE,42,2.0,4.0,7,0.00,,,0.00,VWS V14.01,2013-10-05 21:20:00,
2013-10-05 14:21:00,79.0,9.7,29.95,NNE,20,3.0,5.0,7,0.00,,,0.00,VWS V14.01,2013-10-05 21:21:00,
2013-10-05 14:25:00,78.9,9.6,29.95,East,96,5.0,7.0,7,0.00,,,0.00,VWS V14.01,2013-10-05 21:25:00,
2013-10-05 14:26:00,78.1,9.1,29.95,ESE,114,0.0,5.0,7,0.00,,,0.00,VWS V14.01,2013-10-05 21:26:00,
2013-10-05 14:30:00,78.2,9.1,29.95,SE,128,1.0,5.0,7,0.00,,,0.00,VWS V14.01,2013-10-05 21:30:00,
2013-10-05 14:31:00,78.4,9.3,29.96,SE,128,0.0,1.0,7,0.00,,,0.00,VWS V14.01,2013-10-05 21:31:00,
2013-10-05 14:35:00,78.8,9.6,29.95,East,82,1.0,1.0,7,0.00,,,0.00,VWS V14.01,2013-10-05 21:35:00,
2013-10-05 14:36:00,78.6,9.4,29.95,East,82,0.0,1.0,7,0.00,,,0.00,VWS V14.01,2013-10-05 21:36:00,
2013-10-05 14:40:00,78.9,9.6,29.96,WNW,288,2.0,5.0,7,0.00,,,0.00,VWS V14.01,2013-10-05 21:40:00,
2013-10-05 14:41:00,79.5,10.1,29.96,North,350,2.0,7.0,7,0.00,,,0.00,VWS V14.01,2013-10-05 21:41:00,
2013-10-05 14:45:00,79.4,10.0,29.96,NW,320,2.0,7.0,7,0.00,,,0.00,VWS V14.01,2013-10-05 21:45:00,
2013-10-05 14:46:00,79.2,9.9,29.95,WNW,289,1.0,2.0,7,0.00,,,0.00,VWS V14.01,2013-10-05 21:46:00,
2013-10-05 14:50:00,80.3,10.7,29.95,WNW,286,1.0,2.0,7,0.00,,,0.00,VWS V14.01,2013-10-05 21:50:00,
2013-10-05 14:51:00,80.4,7.3,29.95,NW,325,3.0,5.0,6,0.00,,,0.00,VWS V14.01,2013-10-05 21:51:00,
2013-10-05 14:55:00,80.2,10.6,29.95,WNW,292,0.0,7.0,7,0.00,,,0.00,VWS V14.01,2013-10-05 21:55:00,
2013-10-05 14:56:00,80.4,7.3,29.95,WNW,292,0.0,4.0,6,0.00,,,0.00,VWS V14.01,2013-10-05 21:56:00,
2013-10-05 15:00:00,80.5,7.4,29.95,North,360,9.0,9.0,6,0.00,,,0.00,VWS V14.01,2013-10-05 22:00:00,
2013-10-05 15:01:00,80.2,7.2,29.95,North,355,3.0,9.0,6,0.00,,,0.00,VWS V14.01,2013-10-05 22:01:00,
2013-10-05 15:05:00,80.6,7.5,29.95,NNW,346,4.0,9.0,6,0.00,,,0.00,VWS V14.01,2013-10-05 22:05:00,
2013-10-05 15:06:00,80.6,7.5,29.95,NNE,26,5.0,6.0,6,0.00,,,0.00,VWS V14.01,2013-10-05 22:06:00,
2013-10-05 15:10:00,79.7,6.8,29.95,North,350,0.0,6.0,6,0.00,,,0.00,VWS V14.01,2013-10-05 22:10:00,
2013-10-05 15:11:00,79.6,6.8,29.95,North,350,0.0,0.0,6,0.00,,,0.00,VWS V14.01,2013-10-05 22:11:00,
2013-10-05 15:15:00,80.0,7.0,29.95,NNE,19,5.0,5.0,6,0.00,,,0.00,VWS V14.01,2013-10-05 22:15:00,
2013-10-05 15:16:00,80.2,7.2,29.95,NE,36,0.0,6.0,6,0.00,,,0.00,VWS V14.01,2013-10-05 22:16:00,
2013-10-05 15:20:00,80.0,7.0,29.95,NNE,31,4.0,7.0,6,0.00,,,0.00,VWS V14.01,2013-10-05 22:20:00,
2013-10-05 15:21:00,80.3,7.2,29.95,NNW,331,4.0,7.0,6,0.00,,,0.00,VWS V14.01,2013-10-05 22:21:00,
2013-10-05 15:25:00,80.1,7.1,29.95,NW,323,4.0,8.0,6,0.00,,,0.00,VWS V14.01,2013-10-05 22:25:00,
2013-10-05 15:26:00,79.7,6.8,29.95,North,355,0.0,5.0,6,0.00,,,0.00,VWS V14.01,2013-10-05 22:26:00,
2013-10-05 15:30:00,79.6,6.8,29.95,North,355,1.0,6.0,6,0.00,,,0.00,VWS V14.01,2013-10-05 22:30:00,
2013-10-05 15:31:00,79.4,6.6,29.95,NNW,328,5.0,9.0,6,0.00,,,0.00,VWS V14.01,2013-10-05 22:31:00,
2013-10-05 15:35:00,79.8,6.9,29.95,WNW,288,0.0,9.0,6,0.00,,,0.00,VWS V14.01,2013-10-05 22:35:00,
2013-10-05 15:36:00,80.0,7.0,29.95,NW,309,4.0,4.0,6,0.00,,,0.00,VWS V14.01,2013-10-05 22:36:00,
2013-10-05 15:40:00,80.1,7.1,29.95,North,360,6.0,8.0,6,0.00,,,0.00,VWS V14.01,2013-10-05 22:40:00,
2013-10-05 15:41:00,79.8,6.9,29.95,WNW,294,1.0,9.0,6,0.00,,,0.00,VWS V14.01,2013-10-05 22:41:00,
2013-10-05 15:45:00,79.8,6.9,29.95,NNE,12,8.0,9.0,6,0.00,,,0.00,VWS V14.01,2013-10-05 22:45:00,
2013-10-05 15:46:00,79.6,6.8,29.95,NE,50,0.0,9.0,6,0.00,,,0.00,VWS V14.01,2013-10-05 22:46:00,
2013-10-05 15:50:00,79.4,6.6,29.96,NNE,18,7.0,9.0,6,0.00,,,0.00,VWS V14.01,2013-10-05 22:50:00,
2013-10-05 15:51:00,79.6,6.8,29.95,East,79,0.0,7.0,6,0.00,,,0.00,VWS V14.01,2013-10-05 22:51:00,
2013-10-05 15:55:00,79.7,6.8,29.96,North,355,4.0,9.0,6,0.00,,,0.00,VWS V14.01,2013-10-05 22:55:00,
2013-10-05 15:56:00,79.5,6.7,29.95,North,10,2.0,8.0,6,0.00,,,0.00,VWS V14.01,2013-10-05 22:56:00,
2013-10-05 16:00:00,79.5,6.7,29.95,North,355,5.0,8.0,6,0.00,,,0.00,VWS V14.01,2013-10-05 23:00:00,
2013-10-05 16:01:00,79.5,6.7,29.95,NNW,333,2.0,8.0,6,0.00,,,0.00,VWS V14.01,2013-10-05 23:01:00,
2013-10-05 16:05:00,79.6,6.8,29.95,NNW,344,0.0,8.0,6,0.00,,,0.00,VWS V14.01,2013-10-05 23:05:00,
2013-10-05 16:06:00,79.7,6.8,29.96,NNW,336,6.0,8.0,6,0.00,,,0.00,VWS V14.01,2013-10-05 23:06:00,
2013-10-05 16:10:00,79.4,6.6,29.96,NW,317,3.0,8.0,6,0.00,,,0.00,VWS V14.01,2013-10-05 23:10:00,
2013-10-05 16:11:00,79.3,6.5,29.96,NNW,333,4.0,6.0,6,0.00,,,0.00,VWS V14.01,2013-10-05 23:11:00,
2013-10-05 16:15:00,79.2,6.5,29.96,NNW,346,1.0,6.0,6,0.00,,,0.00,VWS V14.01,2013-10-05 23:15:00,
2013-10-05 16:17:00,79.4,6.6,29.96,North,351,4.0,7.0,6,0.00,,,0.00,VWS V14.01,2013-10-05 23:17:00,
2013-10-05 16:20:00,79.4,6.6,29.96,North,9,2.0,7.0,6,0.00,,,0.00,VWS V14.01,2013-10-05 23:20:00,
2013-10-05 16:22:00,79.2,6.5,29.95,North,11,4.0,9.0,6,0.00,,,0.00,VWS V14.01,2013-10-05 23:22:00,
2013-10-05 16:25:00,79.0,6.3,29.96,NNE,17,4.0,9.0,6,0.00,,,0.00,VWS V14.01,2013-10-05 23:25:00,
2013-10-05 16:27:00,78.9,6.2,29.96,NNE,31,4.0,8.0,6,0.00,,,0.00,VWS V14.01,2013-10-05 23:27:00,
2013-10-05 16:30:00,78.6,6.0,29.96,North,5,2.0,8.0,6,0.00,,,0.00,VWS V14.01,2013-10-05 23:30:00,
2013-10-05 16:32:00,78.5,5.9,29.96,NE,39,0.0,5.0,6,0.00,,,0.00,VWS V14.01,2013-10-05 23:32:00,
2013-10-05 16:35:00,78.2,5.7,29.96,NNE,17,3.0,8.0,6,0.00,,,0.00,VWS V14.01,2013-10-05 23:35:00,
2013-10-05 16:37:00,78.2,5.7,29.96,NE,51,1.0,3.0,6,0.00,,,0.00,VWS V14.01,2013-10-05 23:37:00,
2013-10-05 16:40:00,78.1,5.7,29.96,North,9,2.0,6.0,6,0.00,,,0.00,VWS V14.01,2013-10-05 23:40:00,
2013-10-05 16:42:00,78.2,5.7,29.96,NNW,331,5.0,6.0,6,0.00,,,0.00,VWS V14.01,2013-10-05 23:42:00,
2013-10-05 16:45:00,78.1,5.7,29.96,NNE,20,7.0,9.0,6,0.00,,,0.00,VWS V14.01,2013-10-05 23:45:00,
2013-10-05 16:47:00,77.9,5.5,29.97,North,360,6.0,10.0,6,0.00,,,0.00,VWS V14.01,2013-10-05 23:47:00,
2013-10-05 16:50:00,77.5,5.2,29.97,NW,324,7.0,10.0,6,0.00,,,0.00,VWS V14.01,2013-10-05 23:50:00,
2013-10-05 16:52:00,77.3,5.1,29.97,NNW,338,8.0,8.0,6,0.00,,,0.00,VWS V14.01,2013-10-05 23:52:00,
2013-10-05 16:55:00,77.0,4.9,29.97,North,350,6.0,12.0,6,0.00,,,0.00,VWS V14.01,2013-10-05 23:55:00,
2013-10-05 16:57:00,76.9,4.8,29.97,North,355,8.0,9.0,6,0.00,,,0.00,VWS V14.01,2013-10-05 23:57:00,
2013-10-05 17:00:00,76.7,4.7,29.97,North,360,3.0,10.0,6,0.00,,,0.00,VWS V14.01,2013-10-06 00:00:00,
2013-10-05 17:02:00,76.5,4.5,29.97,North,10,6.0,7.0,6,0.00,,,0.00,VWS V14.01,2013-10-06 00:02:00,
2013-10-05 17:05:00,76.4,4.4,29.97,NNE,15,4.0,9.0,6,0.00,,,0.00,VWS V14.01,2013-10-06 00:05:00,
2013-10-05 17:07:00,76.2,4.3,29.97,NNE,19,4.0,7.0,6,0.00,,,0.00,VWS V14.01,2013-10-06 00:07:00,
2013-10-05 17:10:00,76.0,4.2,29.97,NNW,336,2.0,10.0,6,0.00,,,0.00,VWS V14.01,2013-10-06 00:10:00,
2013-10-05 17:12:00,75.9,4.1,29.97,North,360,2.0,8.0,6,0.00,,,0.00,VWS V14.01,2013-10-06 00:12:00,
2013-10-05 17:15:00,75.6,3.9,29.97,NNE,25,2.0,8.0,6,0.00,,,0.00,VWS V14.01,2013-10-06 00:15:00,
2013-10-05 17:17:00,75.4,3.7,29.97,North,355,4.0,7.0,6,0.00,,,0.00,VWS V14.01,2013-10-06 00:17:00,
2013-10-05 17:20:00,75.1,3.5,29.97,North,355,2.0,7.0,6,0.00,,,0.00,VWS V14.01,2013-10-06 00:20:00,
2013-10-05 17:22:00,74.9,3.4,29.98,NNE,23,3.0,6.0,6,0.00,,,0.00,VWS V14.01,2013-10-06 00:22:00,
2013-10-05 17:25:00,74.6,3.1,29.98,NNE,15,5.0,7.0,6,0.00,,,0.00,VWS V14.01,2013-10-06 00:25:00,
2013-10-05 17:27:00,74.3,2.9,29.98,North,360,2.0,6.0,6,0.00,,,0.00,VWS V14.01,2013-10-06 00:27:00,
2013-10-05 17:30:00,74.0,6.1,29.98,North,9,3.0,6.0,7,0.00,,,0.00,VWS V14.01,2013-10-06 00:30:00,
2013-10-05 17:32:00,73.7,5.8,29.98,NE,36,1.0,6.0,7,0.00,,,0.00,VWS V14.01,2013-10-06 00:32:00,
2013-10-05 17:35:00,73.5,5.7,29.98,North,355,3.0,6.0,7,0.00,,,0.00,VWS V14.01,2013-10-06 00:35:00,
2013-10-05 17:37:00,73.2,5.5,29.98,North,360,0.0,4.0,7,0.00,,,0.00,VWS V14.01,2013-10-06 00:37:00,
2013-10-05 17:40:00,72.9,5.2,29.98,NNE,30,0.0,5.0,7,0.00,,,0.00,VWS V14.01,2013-10-06 00:40:00,
2013-10-05 17:42:00,72.7,8.0,29.98,North,11,3.0,4.0,8,0.00,,,0.00,VWS V14.01,2013-10-06 00:42:00,
2013-10-05 17:45:00,72.3,7.7,29.98,NNE,27,0.0,5.0,8,0.00,,,0.00,VWS V14.01,2013-10-06 00:45:00,
2013-10-05 17:47:00,72.0,7.5,29.98,NNE,26,2.0,3.0,8,0.00,,,0.00,VWS V14.01,2013-10-06 00:47:00,
2013-10-05 17:50:00,71.6,7.2,29.98,NNE,21,1.0,3.0,8,0.00,,,0.00,VWS V14.01,2013-10-06 00:50:00,
2013-10-05 17:52:00,71.2,6.9,29.98,NNE,20,2.0,2.0,8,0.00,,,0.00,VWS V14.01,2013-10-06 00:52:00,
2013-10-05 17:55:00,70.8,6.6,29.98,NNE,21,1.0,3.0,8,0.00,,,0.00,VWS V14.01,2013-10-06 00:55:00,
2013-10-05 17:57:00,70.6,6.5,29.98,NNE,19,2.0,4.0,8,0.00,,,0.00,VWS V14.01,2013-10-06 00:57:00,
2013-10-05 18:00:00,70.3,8.8,29.98,NNE,19,0.0,4.0,9,0.00,,,0.00,VWS V14.01,2013-10-06 01:00:00,
2013-10-05 18:02:00,70.0,8.6,29.98,NNE,17,0.0,2.0,9,0.00,,,0.00,VWS V14.01,2013-10-06 01:02:00,
2013-10-05 18:05:00,69.4,8.2,29.99,NNE,17,1.0,2.0,9,0.00,,,0.00,VWS V14.01,2013-10-06 01:05:00,
2013-10-05 18:07:00,69.0,7.8,29.99,NNE,17,1.0,1.0,9,0.00,,,0.00,VWS V14.01,2013-10-06 01:07:00,
2013-10-05 18:10:00,68.5,7.5,29.99,NNE,17,0.0,2.0,9,0.00,,,0.00,VWS V14.01,2013-10-06 01:10:00,
2013-10-05 18:12:00,68.4,9.7,29.99,NNE,17,1.0,3.0,10,0.00,,,0.00,VWS V14.01,2013-10-06 01:12:00,
2013-10-05 18:15:00,68.2,9.6,29.99,North,360,3.0,4.0,10,0.00,,,0.00,VWS V14.01,2013-10-06 01:15:00,
2013-10-05 18:17:00,68.0,9.4,29.99,North,351,1.0,3.0,10,0.00,,,0.00,VWS V14.01,2013-10-06 01:17:00,
2013-10-05 18:20:00,67.8,9.3,29.99,NNE,31,5.0,6.0,10,0.00,,,0.00,VWS V14.01,2013-10-06 01:20:00,
2013-10-05 18:22:00,68.0,9.4,29.99,NW,324,3.0,6.0,10,0.00,,,0.00,VWS V14.01,2013-10-06 01:22:00,
2013-10-05 18:25:00,68.3,9.7,29.99,North,355,3.0,6.0,10,0.00,,,0.00,VWS V14.01,2013-10-06 01:25:00,
2013-10-05 18:27:00,68.4,9.7,29.99,North,5,5.0,5.0,10,0.00,,,0.00,VWS V14.01,2013-10-06 01:27:00,
2013-10-05 18:30:00,68.3,9.7,29.99,NNE,21,3.0,5.0,10,0.00,,,0.00,VWS V14.01,2013-10-06 01:30:00,
2013-10-05 18:32:00,67.9,9.4,29.99,North,355,3.0,5.0,10,0.00,,,0.00,VWS V14.01,2013-10-06 01:32:00,
2013-10-05 18:35:00,67.5,9.1,29.99,NNW,338,2.0,5.0,10,0.00,,,0.00,VWS V14.01,2013-10-06 01:35:00,
2013-10-05 18:37:00,67.1,8.7,29.99,North,355,4.0,5.0,10,0.00,,,0.00,VWS V14.01,2013-10-06 01:37:00,
2013-10-05 18:40:00,66.9,8.6,29.99,North,355,3.0,7.0,10,0.00,,,0.00,VWS V14.01,2013-10-06 01:40:00,
2013-10-05 18:42:00,66.8,8.5,29.99,NNE,15,5.0,6.0,10,0.00,,,0.00,VWS V14.01,2013-10-06 01:42:00,
2013-10-05 18:45:00,66.6,8.4,30.00,NNW,341,2.0,6.0,10,0.00,,,0.00,VWS V14.01,2013-10-06 01:45:00,
2013-10-05 18:47:00,66.4,8.2,29.99,North,5,0.0,4.0,10,0.00,,,0.00,VWS V14.01,2013-10-06 01:47:00,
2013-10-05 18:50:00,66.2,8.1,29.99,NW,324,7.0,7.0,10,0.00,,,0.00,VWS V14.01,2013-10-06 01:50:00,
2013-10-05 18:52:00,66.2,8.1,29.99,North,350,9.0,9.0,10,0.00,,,0.00,VWS V14.01,2013-10-06 01:52:00,
2013-10-05 18:55:00,66.6,8.4,30.00,NNW,337,7.0,11.0,10,0.00,,,0.00,VWS V14.01,2013-10-06 01:55:00,
2013-10-05 18:57:00,66.9,8.6,30.00,North,5,5.0,8.0,10,0.00,,,0.00,VWS V14.01,2013-10-06 01:57:00,
2013-10-05 19:00:00,67.2,8.8,30.00,North,360,6.0,10.0,10,0.00,,,0.00,VWS V14.01,2013-10-06 02:00:00,
2013-10-05 19:02:00,67.3,8.9,30.00,NNW,330,5.0,9.0,10,0.00,,,0.00,VWS V14.01,2013-10-06 02:02:00,
2013-10-05 19:05:00,67.4,9.0,30.00,North,350,5.0,9.0,10,0.00,,,0.00,VWS V14.01,2013-10-06 02:05:00,
2013-10-05 19:07:00,67.2,8.8,30.00,North,355,4.0,9.0,10,0.00,,,0.00,VWS V14.01,2013-10-06 02:07:00,
2013-10-05 19:10:00,66.9,8.6,30.00,NNW,346,5.0,9.0,10,0.00,,,0.00,VWS V14.01,2013-10-06 02:10:00,
2013-10-05 19:12:00,66.7,8.4,30.00,NNW,339,5.0,8.0,10,0.00,,,0.00,VWS V14.01,2013-10-06 02:12:00,
2013-10-05 19:15:00,66.5,8.3,30.00,NNW,331,8.0,8.0,10,0.00,,,0.00,VWS V14.01,2013-10-06 02:15:00,
2013-10-05 19:17:00,66.5,8.3,30.00,NNW,343,5.0,8.0,10,0.00,,,0.00,VWS V14.01,2013-10-06 02:17:00,
2013-10-05 19:20:00,66.3,10.2,30.00,NNW,341,9.0,9.0,11,0.00,,,0.00,VWS V14.01,2013-10-06 02:20:00,
2013-10-05 19:22:00,66.2,10.2,30.01,NNW,338,6.0,9.0,11,0.00,,,0.00,VWS V14.01,2013-10-06 02:22:00,
2013-10-05 19:25:00,66.2,10.2,30.01,North,355,3.0,10.0,11,0.00,,,0.00,VWS V14.01,2013-10-06 02:25:00,
2013-10-05 19:27:00,66.0,10.0,30.01,NNW,346,5.0,8.0,11,0.00,,,0.00,VWS V14.01,2013-10-06 02:27:00,
2013-10-05 19:30:00,65.8,9.9,30.01,NNW,344,6.0,8.0,11,0.00,,,0.00,VWS V14.01,2013-10-06 02:30:00,
2013-10-05 19:32:00,65.7,9.8,30.01,NNW,336,3.0,7.0,11,0.00,,,0.00,VWS V14.01,2013-10-06 02:32:00,
2013-10-05 19:35:00,65.4,9.6,30.01,North,355,6.0,7.0,11,0.00,,,0.00,VWS V14.01,2013-10-06 02:35:00,
2013-10-05 19:37:00,65.2,9.4,30.01,North,355,3.0,6.0,11,0.00,,,0.00,VWS V14.01,2013-10-06 02:37:00,
2013-10-05 19:40:00,65.1,11.3,30.01,NNW,338,7.0,7.0,12,0.00,,,0.00,VWS V14.01,2013-10-06 02:40:00,
2013-10-05 19:42:00,65.0,11.2,30.01,NNW,329,6.0,7.0,12,0.00,,,0.00,VWS V14.01,2013-10-06 02:42:00,
2013-10-05 19:45:00,65.0,11.2,30.01,NNW,346,4.0,7.0,12,0.00,,,0.00,VWS V14.01,2013-10-06 02:45:00,
2013-10-05 19:47:00,65.0,11.2,30.01,North,360,5.0,7.0,12,0.00,,,0.00,VWS V14.01,2013-10-06 02:47:00,
2013-10-05 19:50:00,64.9,11.1,30.01,North,350,4.0,7.0,12,0.00,,,0.00,VWS V14.01,2013-10-06 02:50:00,
2013-10-05 19:52:00,64.9,12.9,30.01,NNW,346,3.0,6.0,13,0.00,,,0.00,VWS V14.01,2013-10-06 02:52:00,
2013-10-05 19:55:00,64.8,12.8,30.01,NNW,340,3.0,9.0,13,0.00,,,0.00,VWS V14.01,2013-10-06 02:55:00,
2013-10-05 19:57:00,64.7,12.8,30.01,North,360,5.0,7.0,13,0.00,,,0.00,VWS V14.01,2013-10-06 02:57:00,
2013-10-05 20:00:00,64.6,12.7,30.01,NNW,329,2.0,7.0,13,0.00,,,0.00,VWS V14.01,2013-10-06 03:00:00,
2013-10-05 20:02:00,64.5,12.6,30.01,North,355,4.0,6.0,13,0.00,,,0.00,VWS V14.01,2013-10-06 03:02:00,
2013-10-05 20:05:00,64.3,12.4,30.01,North,350,7.0,7.0,13,0.00,,,0.00,VWS V14.01,2013-10-06 03:05:00,
2013-10-05 20:07:00,64.1,14.0,30.01,NNW,348,5.0,7.0,14,0.00,,,0.00,VWS V14.01,2013-10-06 03:07:00,
2013-10-05 20:10:00,63.9,13.8,30.01,North,5,4.0,7.0,14,0.00,,,0.00,VWS V14.01,2013-10-06 03:10:00,
2013-10-05 20:12:00,63.7,13.6,30.01,NNW,335,1.0,5.0,14,0.00,,,0.00,VWS V14.01,2013-10-06 03:12:00,
2013-10-05 20:15:00,63.5,13.5,30.01,North,355,5.0,6.0,14,0.00,,,0.00,VWS V14.01,2013-10-06 03:15:00,
2013-10-05 20:17:00,63.2,14.8,30.01,North,355,5.0,7.0,15,0.00,,,0.00,VWS V14.01,2013-10-06 03:17:00,
2013-10-05 20:20:00,63.1,14.7,30.01,NNW,340,4.0,7.0,15,0.00,,,0.00,VWS V14.01,2013-10-06 03:20:00,
2013-10-05 20:22:00,63.0,14.6,30.01,North,355,4.0,6.0,15,0.00,,,0.00,VWS V14.01,2013-10-06 03:22:00,
2013-10-05 20:25:00,62.9,14.6,30.01,NNW,333,5.0,8.0,15,0.00,,,0.00,VWS V14.01,2013-10-06 03:25:00,
2013-10-05 20:27:00,62.8,16.0,30.01,North,355,3.0,7.0,16,0.00,,,0.00,VWS V14.01,2013-10-06 03:27:00,
2013-10-05 20:30:00,62.7,14.4,30.02,NNW,343,4.0,7.0,15,0.00,,,0.00,VWS V14.01,2013-10-06 03:30:00,
2013-10-05 20:32:00,62.6,15.8,30.02,NNW,343,4.0,7.0,16,0.00,,,0.00,VWS V14.01,2013-10-06 03:32:00,
2013-10-05 20:35:00,62.5,15.7,30.02,NNW,338,7.0,7.0,16,0.00,,,0.00,VWS V14.01,2013-10-06 03:35:00,
2013-10-05 20:37:00,62.3,15.6,30.02,North,350,4.0,7.0,16,0.00,,,0.00,VWS V14.01,2013-10-06 03:37:00,
2013-10-05 20:40:00,62.1,15.4,30.02,North,5,5.0,8.0,16,0.00,,,0.00,VWS V14.01,2013-10-06 03:40:00,
2013-10-05 20:42:00,61.9,15.2,30.02,NNW,340,4.0,7.0,16,0.00,,,0.00,VWS V14.01,2013-10-06 03:42:00,
2013-10-05 20:45:00,61.7,15.1,30.02,North,9,5.0,9.0,16,0.00,,,0.00,VWS V14.01,2013-10-06 03:45:00,
2013-10-05 20:47:00,61.6,16.4,30.02,North,355,5.0,9.0,17,0.00,,,0.00,VWS V14.01,2013-10-06 03:47:00,
2013-10-05 20:50:00,61.5,16.3,30.02,North,5,4.0,9.0,17,0.00,,,0.00,VWS V14.01,2013-10-06 03:50:00,
2013-10-05 20:52:00,61.3,16.1,30.02,North,355,4.0,8.0,17,0.00,,,0.00,VWS V14.01,2013-10-06 03:52:00,
2013-10-05 20:55:00,61.2,16.1,30.02,North,5,5.0,8.0,17,0.00,,,0.00,VWS V14.01,2013-10-06 03:55:00,
2013-10-05 20:57:00,61.0,15.9,30.02,NW,319,5.0,8.0,17,0.00,,,0.00,VWS V14.01,2013-10-06 03:57:00,
2013-10-05 21:00:00,60.8,15.7,30.03,North,350,6.0,8.0,17,0.00,,,0.00,VWS V14.01,2013-10-06 04:00:00,
2013-10-05 21:02:00,60.6,15.6,30.03,North,355,6.0,7.0,17,0.00,,,0.00,VWS V14.01,2013-10-06 04:02:00,
2013-10-05 21:05:00,60.5,15.5,30.02,North,355,6.0,7.0,17,0.00,,,0.00,VWS V14.01,2013-10-06 04:05:00,
2013-10-05 21:07:00,60.3,16.6,30.03,North,5,4.0,7.0,18,0.00,,,0.00,VWS V14.01,2013-10-06 04:07:00,
2013-10-05 21:10:00,60.2,16.6,30.03,North,10,3.0,7.0,18,0.00,,,0.00,VWS V14.01,2013-10-06 04:10:00,
2013-10-05 21:12:00,60.0,16.4,30.03,North,355,4.0,6.0,18,0.00,,,0.00,VWS V14.01,2013-10-06 04:12:00,
2013-10-05 21:15:00,59.9,16.3,30.03,NNW,339,4.0,6.0,18,0.00,,,0.00,VWS V14.01,2013-10-06 04:15:00,
2013-10-05 21:17:00,59.8,17.5,30.03,NNW,343,3.0,6.0,19,0.00,,,0.00,VWS V14.01,2013-10-06 04:17:00,
2013-10-05 21:20:00,59.7,17.4,30.03,North,351,3.0,6.0,19,0.00,,,0.00,VWS V14.01,2013-10-06 04:20:00,
2013-10-05 21:22:00,59.6,17.3,30.03,North,355,6.0,8.0,19,0.00,,,0.00,VWS V14.01,2013-10-06 04:22:00,
2013-10-05 21:25:00,59.8,17.5,30.04,NNW,347,5.0,8.0,19,0.00,,,0.00,VWS V14.01,2013-10-06 04:25:00,
2013-10-05 21:27:00,59.9,17.6,30.03,NNW,342,2.0,7.0,19,0.00,,,0.00,VWS V14.01,2013-10-06 04:27:00,
2013-10-05 21:30:00,60.0,17.6,30.03,North,5,6.0,7.0,19,0.00,,,0.00,VWS V14.01,2013-10-06 04:30:00,
2013-10-05 21:32:00,60.0,17.6,30.03,NNW,344,5.0,7.0,19,0.00,,,0.00,VWS V14.01,2013-10-06 04:32:00,
2013-10-05 21:35:00,60.1,17.7,30.04,North,9,5.0,7.0,19,0.00,,,0.00,VWS V14.01,2013-10-06 04:35:00,
2013-10-05 21:37:00,60.1,17.7,30.04,NNW,345,3.0,8.0,19,0.00,,,0.00,VWS V14.01,2013-10-06 04:37:00,
2013-10-05 21:40:00,60.2,17.8,30.04,NNW,343,4.0,8.0,19,0.00,,,0.00,VWS V14.01,2013-10-06 04:40:00,
2013-10-05 21:42:00,60.2,17.8,30.04,NNW,342,4.0,5.0,19,0.00,,,0.00,VWS V14.01,2013-10-06 04:42:00,
2013-10-05 21:45:00,60.3,17.9,30.03,North,360,5.0,6.0,19,0.00,,,0.00,VWS V14.01,2013-10-06 04:45:00,
2013-10-05 21:47:00,60.3,19.1,30.03,NNW,340,4.0,6.0,20,0.00,,,0.00,VWS V14.01,2013-10-06 04:47:00,
2013-10-05 21:50:00,60.4,19.2,30.03,NNE,25,2.0,6.0,20,0.00,,,0.00,VWS V14.01,2013-10-06 04:50:00,
2013-10-05 21:52:00,60.4,19.2,30.03,North,349,4.0,5.0,20,0.00,,,0.00,VWS V14.01,2013-10-06 04:52:00,
2013-10-05 21:55:00,60.4,19.2,30.03,NNW,336,4.0,6.0,20,0.00,,,0.00,VWS V14.01,2013-10-06 04:55:00,
2013-10-05 21:57:00,60.4,19.2,30.03,NNW,343,4.0,5.0,20,0.00,,,0.00,VWS V14.01,2013-10-06 04:57:00,
2013-10-05 22:00:00,60.4,19.2,30.03,North,350,4.0,6.0,20,0.00,,,0.00,VWS V14.01,2013-10-06 05:00:00,
2013-10-05 22:02:00,60.3,19.1,30.03,NNW,348,4.0,6.0,20,0.00,,,0.00,VWS V14.01,2013-10-06 05:02:00,
2013-10-05 22:05:00,60.3,19.1,30.03,NNW,335,3.0,6.0,20,0.00,,,0.00,VWS V14.01,2013-10-06 05:05:00,
2013-10-05 22:07:00,59.7,18.6,30.04,NNW,335,3.0,4.0,20,0.00,,,0.00,VWS V14.01,2013-10-06 05:07:00,
2013-10-05 22:10:00,59.3,18.3,30.03,NNW,346,3.0,6.0,20,0.00,,,0.00,VWS V14.01,2013-10-06 05:10:00,
2013-10-05 22:12:00,58.9,17.9,30.03,North,351,8.0,8.0,20,0.00,,,0.00,VWS V14.01,2013-10-06 05:12:00,
2013-10-05 22:15:00,58.8,17.8,30.03,North,355,6.0,8.0,20,0.00,,,0.00,VWS V14.01,2013-10-06 05:15:00,
2013-10-05 22:17:00,58.7,18.9,30.03,NW,325,5.0,8.0,21,0.00,,,0.00,VWS V14.01,2013-10-06 05:17:00,
2013-10-05 22:20:00,58.7,18.9,30.03,North,355,5.0,8.0,21,0.00,,,0.00,VWS V14.01,2013-10-06 05:20:00,
2013-10-05 22:22:00,58.9,19.1,30.03,North,360,9.0,10.0,21,0.00,,,0.00,VWS V14.01,2013-10-06 05:22:00,
2013-10-05 22:25:00,59.1,19.2,30.03,NNW,329,6.0,10.0,21,0.00,,,0.00,VWS V14.01,2013-10-06 05:25:00,
2013-10-05 22:27:00,59.3,18.3,30.03,North,355,6.0,8.0,20,0.00,,,0.00,VWS V14.01,2013-10-06 05:27:00,
2013-10-05 22:30:00,59.5,19.6,30.03,North,355,5.0,8.0,21,0.00,,,0.00,VWS V14.01,2013-10-06 05:30:00,
2013-10-05 22:32:00,59.8,18.7,30.03,NNW,338,8.0,9.0,20,0.00,,,0.00,VWS V14.01,2013-10-06 05:32:00,
2013-10-05 22:35:00,60.0,18.8,30.03,NNE,16,5.0,9.0,20,0.00,,,0.00,VWS V14.01,2013-10-06 05:35:00,
2013-10-05 22:37:00,60.2,19.0,30.03,NW,324,5.0,9.0,20,0.00,,,0.00,VWS V14.01,2013-10-06 05:37:00,
2013-10-05 22:40:00,60.3,19.1,30.03,NNW,333,8.0,9.0,20,0.00,,,0.00,VWS V14.01,2013-10-06 05:40:00,
2013-10-05 22:42:00,60.5,19.2,30.03,NNW,347,7.0,10.0,20,0.00,,,0.00,VWS V14.01,2013-10-06 05:42:00,
2013-10-05 22:45:00,60.6,19.3,30.03,North,355,7.0,11.0,20,0.00,,,0.00,VWS V14.01,2013-10-06 05:45:00,
2013-10-05 22:47:00,60.7,19.4,30.03,NW,315,5.0,9.0,20,0.00,,,0.00,VWS V14.01,2013-10-06 05:47:00,
2013-10-05 22:50:00,60.7,19.4,30.03,North,350,7.0,11.0,20,0.00,,,0.00,VWS V14.01,2013-10-06 05:50:00,
2013-10-05 22:52:00,60.7,19.4,30.03,North,355,7.0,10.0,20,0.00,,,0.00,VWS V14.01,2013-10-06 05:52:00,
2013-10-05 22:55:00,60.8,19.5,30.03,NNW,346,9.0,10.0,20,0.00,,,0.00,VWS V14.01,2013-10-06 05:55:00,
2013-10-05 22:57:00,60.8,19.5,30.03,NNW,344,6.0,9.0,20,0.00,,,0.00,VWS V14.01,2013-10-06 05:57:00,
2013-10-05 23:00:00,60.8,19.5,30.03,NNW,346,10.0,10.0,20,0.00,,,0.00,VWS V14.01,2013-10-06 06:00:00,
2013-10-05 23:02:00,60.9,19.6,30.03,NNW,337,6.0,11.0,20,0.00,,,0.00,VWS V14.01,2013-10-06 06:02:00,
2013-10-05 23:05:00,60.9,19.6,30.03,North,355,9.0,11.0,20,0.00,,,0.00,VWS V14.01,2013-10-06 06:05:00,
2013-10-05 23:07:00,60.9,19.6,30.03,NNW,336,5.0,10.0,20,0.00,,,0.00,VWS V14.01,2013-10-06 06:07:00,
2013-10-05 23:10:00,61.0,19.7,30.03,North,360,9.0,10.0,20,0.00,,,0.00,VWS V14.01,2013-10-06 06:10:00,
2013-10-05 23:12:00,61.1,18.5,30.03,North,360,7.0,12.0,19,0.00,,,0.00,VWS V14.01,2013-10-06 06:12:00,
2013-10-05 23:15:00,61.2,18.6,30.03,North,355,6.0,12.0,19,0.00,,,0.00,VWS V14.01,2013-10-06 06:15:00,
2013-10-05 23:17:00,61.5,18.9,30.03,NW,324,8.0,12.0,19,0.00,,,0.00,VWS V14.01,2013-10-06 06:17:00,
2013-10-05 23:20:00,61.6,19.0,30.03,North,355,5.0,12.0,19,0.00,,,0.00,VWS V14.01,2013-10-06 06:20:00,
2013-10-05 23:22:00,61.6,19.0,30.03,North,355,7.0,11.0,19,0.00,,,0.00,VWS V14.01,2013-10-06 06:22:00,
2013-10-05 23:25:00,61.7,19.0,30.03,NNW,330,5.0,11.0,19,0.00,,,0.00,VWS V14.01,2013-10-06 06:25:00,
2013-10-05 23:27:00,61.7,19.0,30.03,NNW,339,6.0,10.0,19,0.00,,,0.00,VWS V14.01,2013-10-06 06:27:00,
2013-10-05 23:30:00,61.7,19.0,30.02,NW,317,7.0,10.0,19,0.00,,,0.00,VWS V14.01,2013-10-06 06:30:00,
2013-10-05 23:33:00,61.8,19.1,30.03,NNW,329,4.0,10.0,19,0.00,,,0.00,VWS V14.01,2013-10-06 06:33:00,
2013-10-05 23:35:00,61.8,19.1,30.03,North,360,7.0,10.0,19,0.00,,,0.00,VWS V14.01,2013-10-06 06:35:00,
2013-10-05 23:38:00,61.7,19.0,30.03,North,350,10.0,11.0,19,0.00,,,0.00,VWS V14.01,2013-10-06 06:38:00,
2013-10-05 23:40:00,61.7,19.0,30.03,North,355,6.0,11.0,19,0.00,,,0.00,VWS V14.01,2013-10-06 06:40:00,
2013-10-05 23:43:00,61.7,19.0,30.03,NNW,331,4.0,12.0,19,0.00,,,0.00,VWS V14.01,2013-10-06 06:43:00,
2013-10-05 23:45:00,61.6,19.0,30.03,NNW,344,7.0,12.0,19,0.00,,,0.00,VWS V14.01,2013-10-06 06:45:00,
2013-10-05 23:48:00,61.6,19.0,30.03,North,349,6.0,10.0,19,0.00,,,0.00,VWS V14.01,2013-10-06 06:48:00,
2013-10-05 23:50:00,61.6,19.0,30.03,NNW,331,9.0,11.0,19,0.00,,,0.00,VWS V14.01,2013-10-06 06:50:00,
2013-10-05 23:53:00,61.6,19.0,30.03,North,350,8.0,10.0,19,0.00,,,0.00,VWS V14.01,2013-10-06 06:53:00,
2013-10-05 23:55:00,61.6,19.0,30.03,NNW,336,8.0,10.0,19,0.00,,,0.00,VWS V14.01,2013-10-06 06:55:00,
2013-10-05 23:58:00,61.7,19.0,30.03,NNW,336,10.0,12.0,19,0.00,,,0.00,VWS V14.01,2013-10-06 06:58:00,